[Werte auf volle kW gerundet];;
01.01.2023;00:15:00;102
01.01.2023;00:30:00;101
01.01.2023;00:45:00;102
01.01.2023;01:00:00;102
01.01.2023;01:15:00;102
01.01.2023;01:30:00;102
01.01.2023;01:45:00;102
01.01.2023;02:00:00;102
01.01.2023;02:15:00;102
01.01.2023;02:30:00;101
01.01.2023;02:45:00;101
01.01.2023;03:00:00;101
01.01.2023;03:15:00;100
01.01.2023;03:30:00;101
01.01.2023;03:45:00;100
01.01.2023;04:00:00;101
01.01.2023;04:15:00;104
01.01.2023;04:30:00;105
01.01.2023;04:45:00;106
01.01.2023;05:00:00;106
01.01.2023;05:15:00;99
01.01.2023;05:30:00;92
01.01.2023;05:45:00;90
01.01.2023;06:00:00;91
01.01.2023;06:15:00;91
01.01.2023;06:30:00;89
01.01.2023;06:45:00;85
01.01.2023;07:00:00;84
01.01.2023;07:15:00;90
01.01.2023;07:30:00;90
01.01.2023;07:45:00;90
01.01.2023;08:00:00;90
01.01.2023;08:15:00;90
01.01.2023;08:30:00;92
01.01.2023;08:45:00;111
01.01.2023;09:00:00;144
01.01.2023;09:15:00;164
01.01.2023;09:30:00;194
01.01.2023;09:45:00;216
01.01.2023;10:00:00;308
01.01.2023;10:15:00;382
01.01.2023;10:30:00;390
01.01.2023;10:45:00;457
01.01.2023;11:00:00;465
01.01.2023;11:15:00;469
01.01.2023;11:30:00;608
01.01.2023;11:45:00;586
01.01.2023;12:00:00;332
01.01.2023;12:15:00;332
01.01.2023;12:30:00;353
01.01.2023;12:45:00;364
01.01.2023;13:00:00;316
01.01.2023;13:15:00;398
01.01.2023;13:30:00;367
01.01.2023;13:45:00;377
01.01.2023;14:00:00;350
01.01.2023;14:15:00;284
01.01.2023;14:30:00;207
01.01.2023;14:45:00;201
01.01.2023;15:00:00;177
01.01.2023;15:15:00;140
01.01.2023;15:30:00;97
01.01.2023;15:45:00;88
01.01.2023;16:00:00;86
01.01.2023;16:15:00;82
01.01.2023;16:30:00;85
01.01.2023;16:45:00;87
01.01.2023;17:00:00;87
01.01.2023;17:15:00;87
01.01.2023;17:30:00;86
01.01.2023;17:45:00;86
01.01.2023;18:00:00;85
01.01.2023;18:15:00;85
01.01.2023;18:30:00;86
01.01.2023;18:45:00;81
01.01.2023;19:00:00;83
01.01.2023;19:15:00;86
01.01.2023;19:30:00;86
01.01.2023;19:45:00;86
01.01.2023;20:00:00;84
01.01.2023;20:15:00;86
01.01.2023;20:30:00;86
01.01.2023;20:45:00;85
01.01.2023;21:00:00;85
01.01.2023;21:15:00;94
01.01.2023;21:30:00;98
01.01.2023;21:45:00;100
01.01.2023;22:00:00;100
01.01.2023;22:15:00;100
01.01.2023;22:30:00;99
01.01.2023;22:45:00;96
01.01.2023;23:00:00;97
01.01.2023;23:15:00;96
01.01.2023;23:30:00;97
01.01.2023;23:45:00;96
02.01.2023;00:00:00;96
02.01.2023;00:15:00;96
02.01.2023;00:30:00;96
02.01.2023;00:45:00;98
02.01.2023;01:00:00;96
02.01.2023;01:15:00;99
02.01.2023;01:30:00;97
02.01.2023;01:45:00;97
02.01.2023;02:00:00;97
02.01.2023;02:15:00;96
02.01.2023;02:30:00;96
02.01.2023;02:45:00;96
02.01.2023;03:00:00;96
02.01.2023;03:15:00;95
02.01.2023;03:30:00;95
02.01.2023;03:45:00;95
02.01.2023;04:00:00;97
02.01.2023;04:15:00;99
02.01.2023;04:30:00;99
02.01.2023;04:45:00;100
02.01.2023;05:00:00;101
02.01.2023;05:15:00;92
02.01.2023;05:30:00;87
02.01.2023;05:45:00;86
02.01.2023;06:00:00;84
02.01.2023;06:15:00;83
02.01.2023;06:30:00;77
02.01.2023;06:45:00;77
02.01.2023;07:00:00;85
02.01.2023;07:15:00;84
02.01.2023;07:30:00;83
02.01.2023;07:45:00;85
02.01.2023;08:00:00;83
02.01.2023;08:15:00;84
02.01.2023;08:30:00;83
02.01.2023;08:45:00;83
02.01.2023;09:00:00;76
02.01.2023;09:15:00;83
02.01.2023;09:30:00;102
02.01.2023;09:45:00;119
02.01.2023;10:00:00;224
02.01.2023;10:15:00;220
02.01.2023;10:30:00;231
02.01.2023;10:45:00;279
02.01.2023;11:00:00;339
02.01.2023;11:15:00;422
02.01.2023;11:30:00;543
02.01.2023;11:45:00;340
02.01.2023;12:00:00;291
02.01.2023;12:15:00;367
02.01.2023;12:30:00;343
02.01.2023;12:45:00;498
02.01.2023;13:00:00;257
02.01.2023;13:15:00;259
02.01.2023;13:30:00;270
02.01.2023;13:45:00;394
02.01.2023;14:00:00;387
02.01.2023;14:15:00;353
02.01.2023;14:30:00;291
02.01.2023;14:45:00;172
02.01.2023;15:00:00;162
02.01.2023;15:15:00;157
02.01.2023;15:30:00;148
02.01.2023;15:45:00;97
02.01.2023;16:00:00;82
02.01.2023;16:15:00;78
02.01.2023;16:30:00;79
02.01.2023;16:45:00;80
02.01.2023;17:00:00;78
02.01.2023;17:15:00;77
02.01.2023;17:30:00;81
02.01.2023;17:45:00;80
02.01.2023;18:00:00;77
02.01.2023;18:15:00;75
02.01.2023;18:30:00;75
02.01.2023;18:45:00;77
02.01.2023;19:00:00;76
02.01.2023;19:15:00;75
02.01.2023;19:30:00;76
02.01.2023;19:45:00;75
02.01.2023;20:00:00;76
02.01.2023;20:15:00;74
02.01.2023;20:30:00;74
02.01.2023;20:45:00;79
02.01.2023;21:00:00;78
02.01.2023;21:15:00;87
02.01.2023;21:30:00;93
02.01.2023;21:45:00;93
02.01.2023;22:00:00;92
02.01.2023;22:15:00;92
02.01.2023;22:30:00;93
02.01.2023;22:45:00;95
02.01.2023;23:00:00;94
02.01.2023;23:15:00;95
02.01.2023;23:30:00;99
02.01.2023;23:45:00;102
03.01.2023;00:00:00;97
03.01.2023;00:15:00;98
03.01.2023;00:30:00;102
03.01.2023;00:45:00;103
03.01.2023;01:00:00;98
03.01.2023;01:15:00;98
03.01.2023;01:30:00;100
03.01.2023;01:45:00;99
03.01.2023;02:00:00;97
03.01.2023;02:15:00;99
03.01.2023;02:30:00;102
03.01.2023;02:45:00;99
03.01.2023;03:00:00;96
03.01.2023;03:15:00;96
03.01.2023;03:30:00;99
03.01.2023;03:45:00;95
03.01.2023;04:00:00;95
03.01.2023;04:15:00;99
03.01.2023;04:30:00;99
03.01.2023;04:45:00;96
03.01.2023;05:00:00;96
03.01.2023;05:15:00;86
03.01.2023;05:30:00;82
03.01.2023;05:45:00;80
03.01.2023;06:00:00;82
03.01.2023;06:15:00;83
03.01.2023;06:30:00;81
03.01.2023;06:45:00;80
03.01.2023;07:00:00;80
03.01.2023;07:15:00;79
03.01.2023;07:30:00;78
03.01.2023;07:45:00;78
03.01.2023;08:00:00;78
03.01.2023;08:15:00;77
03.01.2023;08:30:00;78
03.01.2023;08:45:00;87
03.01.2023;09:00:00;145
03.01.2023;09:15:00;200
03.01.2023;09:30:00;257
03.01.2023;09:45:00;357
03.01.2023;10:00:00;411
03.01.2023;10:15:00;488
03.01.2023;10:30:00;545
03.01.2023;10:45:00;577
03.01.2023;11:00:00;608
03.01.2023;11:15:00;630
03.01.2023;11:30:00;655
03.01.2023;11:45:00;662
03.01.2023;12:00:00;668
03.01.2023;12:15:00;658
03.01.2023;12:30:00;631
03.01.2023;12:45:00;618
03.01.2023;13:00:00;609
03.01.2023;13:15:00;576
03.01.2023;13:30:00;548
03.01.2023;13:45:00;522
03.01.2023;14:00:00;470
03.01.2023;14:15:00;407
03.01.2023;14:30:00;238
03.01.2023;14:45:00;241
03.01.2023;15:00:00;198
03.01.2023;15:15:00;141
03.01.2023;15:30:00;144
03.01.2023;15:45:00;113
03.01.2023;16:00:00;100
03.01.2023;16:15:00;81
03.01.2023;16:30:00;83
03.01.2023;16:45:00;82
03.01.2023;17:00:00;80
03.01.2023;17:15:00;79
03.01.2023;17:30:00;80
03.01.2023;17:45:00;78
03.01.2023;18:00:00;80
03.01.2023;18:15:00;80
03.01.2023;18:30:00;79
03.01.2023;18:45:00;81
03.01.2023;19:00:00;83
03.01.2023;19:15:00;83
03.01.2023;19:30:00;83
03.01.2023;19:45:00;83
03.01.2023;20:00:00;82
03.01.2023;20:15:00;83
03.01.2023;20:30:00;82
03.01.2023;20:45:00;84
03.01.2023;21:00:00;83
03.01.2023;21:15:00;88
03.01.2023;21:30:00;96
03.01.2023;21:45:00;96
03.01.2023;22:00:00;98
03.01.2023;22:15:00;98
03.01.2023;22:30:00;98
03.01.2023;22:45:00;99
03.01.2023;23:00:00;99
03.01.2023;23:15:00;100
03.01.2023;23:30:00;100
03.01.2023;23:45:00;100
04.01.2023;00:00:00;98
04.01.2023;00:15:00;100
04.01.2023;00:30:00;101
04.01.2023;00:45:00;101
04.01.2023;01:00:00;102
04.01.2023;01:15:00;100
04.01.2023;01:30:00;100
04.01.2023;01:45:00;100
04.01.2023;02:00:00;99
04.01.2023;02:15:00;92
04.01.2023;02:30:00;94
04.01.2023;02:45:00;96
04.01.2023;03:00:00;98
04.01.2023;03:15:00;100
04.01.2023;03:30:00;99
04.01.2023;03:45:00;96
04.01.2023;04:00:00;102
04.01.2023;04:15:00;100
04.01.2023;04:30:00;102
04.01.2023;04:45:00;101
04.01.2023;05:00:00;101
04.01.2023;05:15:00;95
04.01.2023;05:30:00;87
04.01.2023;05:45:00;86
04.01.2023;06:00:00;85
04.01.2023;06:15:00;88
04.01.2023;06:30:00;87
04.01.2023;06:45:00;85
04.01.2023;07:00:00;83
04.01.2023;07:15:00;84
04.01.2023;07:30:00;82
04.01.2023;07:45:00;80
04.01.2023;08:00:00;79
04.01.2023;08:15:00;81
04.01.2023;08:30:00;80
04.01.2023;08:45:00;80
04.01.2023;09:00:00;83
04.01.2023;09:15:00;88
04.01.2023;09:30:00;82
04.01.2023;09:45:00;91
04.01.2023;10:00:00;104
04.01.2023;10:15:00;111
04.01.2023;10:30:00;128
04.01.2023;10:45:00;152
04.01.2023;11:00:00;157
04.01.2023;11:15:00;149
04.01.2023;11:30:00;168
04.01.2023;11:45:00;172
04.01.2023;12:00:00;197
04.01.2023;12:15:00;111
04.01.2023;12:30:00;140
04.01.2023;12:45:00;168
04.01.2023;13:00:00;214
04.01.2023;13:15:00;237
04.01.2023;13:30:00;241
04.01.2023;13:45:00;283
04.01.2023;14:00:00;252
04.01.2023;14:15:00;203
04.01.2023;14:30:00;151
04.01.2023;14:45:00;86
04.01.2023;15:00:00;87
04.01.2023;15:15:00;82
04.01.2023;15:30:00;71
04.01.2023;15:45:00;85
04.01.2023;16:00:00;69
04.01.2023;16:15:00;64
04.01.2023;16:30:00;64
04.01.2023;16:45:00;68
04.01.2023;17:00:00;67
04.01.2023;17:15:00;63
04.01.2023;17:30:00;65
04.01.2023;17:45:00;64
04.01.2023;18:00:00;68
04.01.2023;18:15:00;63
04.01.2023;18:30:00;70
04.01.2023;18:45:00;77
04.01.2023;19:00:00;76
04.01.2023;19:15:00;75
04.01.2023;19:30:00;76
04.01.2023;19:45:00;78
04.01.2023;20:00:00;78
04.01.2023;20:15:00;79
04.01.2023;20:30:00;79
04.01.2023;20:45:00;76
04.01.2023;21:00:00;81
04.01.2023;21:15:00;91
04.01.2023;21:30:00;92
04.01.2023;21:45:00;92
04.01.2023;22:00:00;93
04.01.2023;22:15:00;90
04.01.2023;22:30:00;93
04.01.2023;22:45:00;96
04.01.2023;23:00:00;95
04.01.2023;23:15:00;95
04.01.2023;23:30:00;95
04.01.2023;23:45:00;97
05.01.2023;00:00:00;100
05.01.2023;00:15:00;99
05.01.2023;00:30:00;98
05.01.2023;00:45:00;100
05.01.2023;01:00:00;98
05.01.2023;01:15:00;100
05.01.2023;01:30:00;99
05.01.2023;01:45:00;98
05.01.2023;02:00:00;98
05.01.2023;02:15:00;95
05.01.2023;02:30:00;93
05.01.2023;02:45:00;95
05.01.2023;03:00:00;99
05.01.2023;03:15:00;100
05.01.2023;03:30:00;99
05.01.2023;03:45:00;99
05.01.2023;04:00:00;99
05.01.2023;04:15:00;98
05.01.2023;04:30:00;97
05.01.2023;04:45:00;99
05.01.2023;05:00:00;99
05.01.2023;05:15:00;92
05.01.2023;05:30:00;87
05.01.2023;05:45:00;87
05.01.2023;06:00:00;86
05.01.2023;06:15:00;83
05.01.2023;06:30:00;83
05.01.2023;06:45:00;83
05.01.2023;07:00:00;86
05.01.2023;07:15:00;83
05.01.2023;07:30:00;83
05.01.2023;07:45:00;82
05.01.2023;08:00:00;79
05.01.2023;08:15:00;80
05.01.2023;08:30:00;80
05.01.2023;08:45:00;79
05.01.2023;09:00:00;92
05.01.2023;09:15:00;105
05.01.2023;09:30:00;105
05.01.2023;09:45:00;124
05.01.2023;10:00:00;127
05.01.2023;10:15:00;119
05.01.2023;10:30:00;138
05.01.2023;10:45:00;162
05.01.2023;11:00:00;339
05.01.2023;11:15:00;159
05.01.2023;11:30:00;161
05.01.2023;11:45:00;215
05.01.2023;12:00:00;211
05.01.2023;12:15:00;216
05.01.2023;12:30:00;164
05.01.2023;12:45:00;228
05.01.2023;13:00:00;356
05.01.2023;13:15:00;281
05.01.2023;13:30:00;219
05.01.2023;13:45:00;176
05.01.2023;14:00:00;225
05.01.2023;14:15:00;332
05.01.2023;14:30:00;139
05.01.2023;14:45:00;125
05.01.2023;15:00:00;138
05.01.2023;15:15:00;83
05.01.2023;15:30:00;85
05.01.2023;15:45:00;73
05.01.2023;16:00:00;69
05.01.2023;16:15:00;67
05.01.2023;16:30:00;66
05.01.2023;16:45:00;68
05.01.2023;17:00:00;65
05.01.2023;17:15:00;67
05.01.2023;17:30:00;66
05.01.2023;17:45:00;67
05.01.2023;18:00:00;68
05.01.2023;18:15:00;65
05.01.2023;18:30:00;68
05.01.2023;18:45:00;70
05.01.2023;19:00:00;69
05.01.2023;19:15:00;67
05.01.2023;19:30:00;69
05.01.2023;19:45:00;68
05.01.2023;20:00:00;66
05.01.2023;20:15:00;64
05.01.2023;20:30:00;80
05.01.2023;20:45:00;80
05.01.2023;21:00:00;80
05.01.2023;21:15:00;80
05.01.2023;21:30:00;80
05.01.2023;21:45:00;80
05.01.2023;22:00:00;79
05.01.2023;22:15:00;81
05.01.2023;22:30:00;83
05.01.2023;22:45:00;86
05.01.2023;23:00:00;85
05.01.2023;23:15:00;86
05.01.2023;23:30:00;86
05.01.2023;23:45:00;86
06.01.2023;00:00:00;88
06.01.2023;00:15:00;89
06.01.2023;00:30:00;89
06.01.2023;00:45:00;89
06.01.2023;01:00:00;89
06.01.2023;01:15:00;89
06.01.2023;01:30:00;89
06.01.2023;01:45:00;89
06.01.2023;02:00:00;89
06.01.2023;02:15:00;85
06.01.2023;02:30:00;84
06.01.2023;02:45:00;89
06.01.2023;03:00:00;88
06.01.2023;03:15:00;88
06.01.2023;03:30:00;87
06.01.2023;03:45:00;87
06.01.2023;04:00:00;87
06.01.2023;04:15:00;88
06.01.2023;04:30:00;88
06.01.2023;04:45:00;88
06.01.2023;05:00:00;88
06.01.2023;05:15:00;88
06.01.2023;05:30:00;87
06.01.2023;05:45:00;86
06.01.2023;06:00:00;84
06.01.2023;06:15:00;84
06.01.2023;06:30:00;83
06.01.2023;06:45:00;80
06.01.2023;07:00:00;80
06.01.2023;07:15:00;80
06.01.2023;07:30:00;82
06.01.2023;07:45:00;81
06.01.2023;08:00:00;663
06.01.2023;08:15:00;192
06.01.2023;08:30:00;80
06.01.2023;08:45:00;79
06.01.2023;09:00:00;97
06.01.2023;09:15:00;114
06.01.2023;09:30:00;124
06.01.2023;09:45:00;122
06.01.2023;10:00:00;131
06.01.2023;10:15:00;138
06.01.2023;10:30:00;193
06.01.2023;10:45:00;203
06.01.2023;11:00:00;167
06.01.2023;11:15:00;197
06.01.2023;11:30:00;297
06.01.2023;11:45:00;284
06.01.2023;12:00:00;214
06.01.2023;12:15:00;165
06.01.2023;12:30:00;185
06.01.2023;12:45:00;388
06.01.2023;13:00:00;541
06.01.2023;13:15:00;600
06.01.2023;13:30:00;500
06.01.2023;13:45:00;559
06.01.2023;14:00:00;452
06.01.2023;14:15:00;130
06.01.2023;14:30:00;92
06.01.2023;14:45:00;96
06.01.2023;15:00:00;155
06.01.2023;15:15:00;137
06.01.2023;15:30:00;106
06.01.2023;15:45:00;96
06.01.2023;16:00:00;80
06.01.2023;16:15:00;74
06.01.2023;16:30:00;66
06.01.2023;16:45:00;66
06.01.2023;17:00:00;71
06.01.2023;17:15:00;64
06.01.2023;17:30:00;63
06.01.2023;17:45:00;66
06.01.2023;18:00:00;66
06.01.2023;18:15:00;62
06.01.2023;18:30:00;68
06.01.2023;18:45:00;70
06.01.2023;19:00:00;70
06.01.2023;19:15:00;70
06.01.2023;19:30:00;69
06.01.2023;19:45:00;71
06.01.2023;20:00:00;71
06.01.2023;20:15:00;71
06.01.2023;20:30:00;73
06.01.2023;20:45:00;70
06.01.2023;21:00:00;72
06.01.2023;21:15:00;79
06.01.2023;21:30:00;85
06.01.2023;21:45:00;84
06.01.2023;22:00:00;84
06.01.2023;22:15:00;85
06.01.2023;22:30:00;85
06.01.2023;22:45:00;83
06.01.2023;23:00:00;82
06.01.2023;23:15:00;86
06.01.2023;23:30:00;86
06.01.2023;23:45:00;85
07.01.2023;00:00:00;85
07.01.2023;00:15:00;85
07.01.2023;00:30:00;88
07.01.2023;00:45:00;85
07.01.2023;01:00:00;85
07.01.2023;01:15:00;85
07.01.2023;01:30:00;85
07.01.2023;01:45:00;85
07.01.2023;02:00:00;87
07.01.2023;02:15:00;85
07.01.2023;02:30:00;86
07.01.2023;02:45:00;85
07.01.2023;03:00:00;85
07.01.2023;03:15:00;84
07.01.2023;03:30:00;85
07.01.2023;03:45:00;84
07.01.2023;04:00:00;87
07.01.2023;04:15:00;90
07.01.2023;04:30:00;88
07.01.2023;04:45:00;84
07.01.2023;05:00:00;83
07.01.2023;05:15:00;81
07.01.2023;05:30:00;76
07.01.2023;05:45:00;73
07.01.2023;06:00:00;71
07.01.2023;06:15:00;74
07.01.2023;06:30:00;77
07.01.2023;06:45:00;76
07.01.2023;07:00:00;71
07.01.2023;07:15:00;71
07.01.2023;07:30:00;76
07.01.2023;07:45:00;76
07.01.2023;08:00:00;73
07.01.2023;08:15:00;70
07.01.2023;08:30:00;76
07.01.2023;08:45:00;91
07.01.2023;09:00:00;122
07.01.2023;09:15:00;166
07.01.2023;09:30:00;153
07.01.2023;09:45:00;184
07.01.2023;10:00:00;194
07.01.2023;10:15:00;236
07.01.2023;10:30:00;170
07.01.2023;10:45:00;128
07.01.2023;11:00:00;166
07.01.2023;11:15:00;152
07.01.2023;11:30:00;83
07.01.2023;11:45:00;109
07.01.2023;12:00:00;117
07.01.2023;12:15:00;99
07.01.2023;12:30:00;141
07.01.2023;12:45:00;133
07.01.2023;13:00:00;151
07.01.2023;13:15:00;185
07.01.2023;13:30:00;184
07.01.2023;13:45:00;152
07.01.2023;14:00:00;123
07.01.2023;14:15:00;138
07.01.2023;14:30:00;150
07.01.2023;14:45:00;116
07.01.2023;15:00:00;87
07.01.2023;15:15:00;72
07.01.2023;15:30:00;67
07.01.2023;15:45:00;63
07.01.2023;16:00:00;64
07.01.2023;16:15:00;63
07.01.2023;16:30:00;62
07.01.2023;16:45:00;62
07.01.2023;17:00:00;63
07.01.2023;17:15:00;64
07.01.2023;17:30:00;62
07.01.2023;17:45:00;61
07.01.2023;18:00:00;61
07.01.2023;18:15:00;63
07.01.2023;18:30:00;64
07.01.2023;18:45:00;67
07.01.2023;19:00:00;70
07.01.2023;19:15:00;70
07.01.2023;19:30:00;68
07.01.2023;19:45:00;67
07.01.2023;20:00:00;67
07.01.2023;20:15:00;67
07.01.2023;20:30:00;69
07.01.2023;20:45:00;73
07.01.2023;21:00:00;70
07.01.2023;21:15:00;77
07.01.2023;21:30:00;83
07.01.2023;21:45:00;85
07.01.2023;22:00:00;84
07.01.2023;22:15:00;81
07.01.2023;22:30:00;83
07.01.2023;22:45:00;87
07.01.2023;23:00:00;87
07.01.2023;23:15:00;83
07.01.2023;23:30:00;82
07.01.2023;23:45:00;82
08.01.2023;00:00:00;83
08.01.2023;00:15:00;83
08.01.2023;00:30:00;82
08.01.2023;00:45:00;82
08.01.2023;01:00:00;82
08.01.2023;01:15:00;82
08.01.2023;01:30:00;82
08.01.2023;01:45:00;82
08.01.2023;02:00:00;84
08.01.2023;02:15:00;83
08.01.2023;02:30:00;82
08.01.2023;02:45:00;83
08.01.2023;03:00:00;84
08.01.2023;03:15:00;84
08.01.2023;03:30:00;84
08.01.2023;03:45:00;83
08.01.2023;04:00:00;83
08.01.2023;04:15:00;86
08.01.2023;04:30:00;85
08.01.2023;04:45:00;80
08.01.2023;05:00:00;81
08.01.2023;05:15:00;83
08.01.2023;05:30:00;74
08.01.2023;05:45:00;72
08.01.2023;06:00:00;69
08.01.2023;06:15:00;69
08.01.2023;06:30:00;74
08.01.2023;06:45:00;72
08.01.2023;07:00:00;68
08.01.2023;07:15:00;69
08.01.2023;07:30:00;73
08.01.2023;07:45:00;74
08.01.2023;08:00:00;70
08.01.2023;08:15:00;68
08.01.2023;08:30:00;69
08.01.2023;08:45:00;79
08.01.2023;09:00:00;75
08.01.2023;09:15:00;76
08.01.2023;09:30:00;97
08.01.2023;09:45:00;138
08.01.2023;10:00:00;174
08.01.2023;10:15:00;178
08.01.2023;10:30:00;175
08.01.2023;10:45:00;172
08.01.2023;11:00:00;140
08.01.2023;11:15:00;117
08.01.2023;11:30:00;160
08.01.2023;11:45:00;255
08.01.2023;12:00:00;277
08.01.2023;12:15:00;295
08.01.2023;12:30:00;319
08.01.2023;12:45:00;349
08.01.2023;13:00:00;319
08.01.2023;13:15:00;221
08.01.2023;13:30:00;200
08.01.2023;13:45:00;170
08.01.2023;14:00:00;188
08.01.2023;14:15:00;210
08.01.2023;14:30:00;180
08.01.2023;14:45:00;196
08.01.2023;15:00:00;284
08.01.2023;15:15:00;367
08.01.2023;15:30:00;183
08.01.2023;15:45:00;97
08.01.2023;16:00:00;87
08.01.2023;16:15:00;76
08.01.2023;16:30:00;70
08.01.2023;16:45:00;66
08.01.2023;17:00:00;66
08.01.2023;17:15:00;67
08.01.2023;17:30:00;67
08.01.2023;17:45:00;66
08.01.2023;18:00:00;65
08.01.2023;18:15:00;67
08.01.2023;18:30:00;68
08.01.2023;18:45:00;70
08.01.2023;19:00:00;73
08.01.2023;19:15:00;74
08.01.2023;19:30:00;70
08.01.2023;19:45:00;69
08.01.2023;20:00:00;70
08.01.2023;20:15:00;72
08.01.2023;20:30:00;73
08.01.2023;20:45:00;71
08.01.2023;21:00:00;70
08.01.2023;21:15:00;83
08.01.2023;21:30:00;83
08.01.2023;21:45:00;86
08.01.2023;22:00:00;89
08.01.2023;22:15:00;84
08.01.2023;22:30:00;84
08.01.2023;22:45:00;84
08.01.2023;23:00:00;86
08.01.2023;23:15:00;87
08.01.2023;23:30:00;84
08.01.2023;23:45:00;84
09.01.2023;00:00:00;84
09.01.2023;00:15:00;86
09.01.2023;00:30:00;86
09.01.2023;00:45:00;85
09.01.2023;01:00:00;85
09.01.2023;01:15:00;84
09.01.2023;01:30:00;85
09.01.2023;01:45:00;85
09.01.2023;02:00:00;85
09.01.2023;02:15:00;85
09.01.2023;02:30:00;85
09.01.2023;02:45:00;86
09.01.2023;03:00:00;85
09.01.2023;03:15:00;84
09.01.2023;03:30:00;84
09.01.2023;03:45:00;84
09.01.2023;04:00:00;84
09.01.2023;04:15:00;84
09.01.2023;04:30:00;84
09.01.2023;04:45:00;84
09.01.2023;05:00:00;84
09.01.2023;05:15:00;74
09.01.2023;05:30:00;71
09.01.2023;05:45:00;71
09.01.2023;06:00:00;72
09.01.2023;06:15:00;72
09.01.2023;06:30:00;71
09.01.2023;06:45:00;70
09.01.2023;07:00:00;70
09.01.2023;07:15:00;72
09.01.2023;07:30:00;75
09.01.2023;07:45:00;72
09.01.2023;08:00:00;69
09.01.2023;08:15:00;69
09.01.2023;08:30:00;71
09.01.2023;08:45:00;72
09.01.2023;09:00:00;131
09.01.2023;09:15:00;187
09.01.2023;09:30:00;246
09.01.2023;09:45:00;250
09.01.2023;10:00:00;476
09.01.2023;10:15:00;296
09.01.2023;10:30:00;334
09.01.2023;10:45:00;222
09.01.2023;11:00:00;240
09.01.2023;11:15:00;251
09.01.2023;11:30:00;272
09.01.2023;11:45:00;311
09.01.2023;12:00:00;276
09.01.2023;12:15:00;189
09.01.2023;12:30:00;603
09.01.2023;12:45:00;633
09.01.2023;13:00:00;508
09.01.2023;13:15:00;279
09.01.2023;13:30:00;290
09.01.2023;13:45:00;196
09.01.2023;14:00:00;237
09.01.2023;14:15:00;236
09.01.2023;14:30:00;254
09.01.2023;14:45:00;168
09.01.2023;15:00:00;128
09.01.2023;15:15:00;104
09.01.2023;15:30:00;90
09.01.2023;15:45:00;100
09.01.2023;16:00:00;80
09.01.2023;16:15:00;76
09.01.2023;16:30:00;66
09.01.2023;16:45:00;65
09.01.2023;17:00:00;66
09.01.2023;17:15:00;68
09.01.2023;17:30:00;65
09.01.2023;17:45:00;66
09.01.2023;18:00:00;66
09.01.2023;18:15:00;62
09.01.2023;18:30:00;65
09.01.2023;18:45:00;69
09.01.2023;19:00:00;68
09.01.2023;19:15:00;63
09.01.2023;19:30:00;65
09.01.2023;19:45:00;66
09.01.2023;20:00:00;65
09.01.2023;20:15:00;66
09.01.2023;20:30:00;65
09.01.2023;20:45:00;66
09.01.2023;21:00:00;68
09.01.2023;21:15:00;73
09.01.2023;21:30:00;86
09.01.2023;21:45:00;85
09.01.2023;22:00:00;82
09.01.2023;22:15:00;82
09.01.2023;22:30:00;83
09.01.2023;22:45:00;88
09.01.2023;23:00:00;86
09.01.2023;23:15:00;84
09.01.2023;23:30:00;85
09.01.2023;23:45:00;87
10.01.2023;00:00:00;85
10.01.2023;00:15:00;87
10.01.2023;00:30:00;87
10.01.2023;00:45:00;87
10.01.2023;01:00:00;87
10.01.2023;01:15:00;86
10.01.2023;01:30:00;87
10.01.2023;01:45:00;87
10.01.2023;02:00:00;86
10.01.2023;02:15:00;87
10.01.2023;02:30:00;90
10.01.2023;02:45:00;87
10.01.2023;03:00:00;90
10.01.2023;03:15:00;96
10.01.2023;03:30:00;97
10.01.2023;03:45:00;101
10.01.2023;04:00:00;99
10.01.2023;04:15:00;95
10.01.2023;04:30:00;96
10.01.2023;04:45:00;95
10.01.2023;05:00:00;101
10.01.2023;05:15:00;89
10.01.2023;05:30:00;83
10.01.2023;05:45:00;82
10.01.2023;06:00:00;85
10.01.2023;06:15:00;87
10.01.2023;06:30:00;82
10.01.2023;06:45:00;82
10.01.2023;07:00:00;81
10.01.2023;07:15:00;80
10.01.2023;07:30:00;79
10.01.2023;07:45:00;78
10.01.2023;08:00:00;79
10.01.2023;08:15:00;79
10.01.2023;08:30:00;79
10.01.2023;08:45:00;93
10.01.2023;09:00:00;143
10.01.2023;09:15:00;160
10.01.2023;09:30:00;154
10.01.2023;09:45:00;176
10.01.2023;10:00:00;175
10.01.2023;10:15:00;210
10.01.2023;10:30:00;363
10.01.2023;10:45:00;231
10.01.2023;11:00:00;205
10.01.2023;11:15:00;240
10.01.2023;11:30:00;271
10.01.2023;11:45:00;335
10.01.2023;12:00:00;267
10.01.2023;12:15:00;195
10.01.2023;12:30:00;218
10.01.2023;12:45:00;215
10.01.2023;13:00:00;218
10.01.2023;13:15:00;218
10.01.2023;13:30:00;194
10.01.2023;13:45:00;213
10.01.2023;14:00:00;193
10.01.2023;14:15:00;161
10.01.2023;14:30:00;170
10.01.2023;14:45:00;151
10.01.2023;15:00:00;168
10.01.2023;15:15:00;221
10.01.2023;15:30:00;165
10.01.2023;15:45:00;98
10.01.2023;16:00:00;72
10.01.2023;16:15:00;68
10.01.2023;16:30:00;69
10.01.2023;16:45:00;70
10.01.2023;17:00:00;69
10.01.2023;17:15:00;68
10.01.2023;17:30:00;66
10.01.2023;17:45:00;67
10.01.2023;18:00:00;66
10.01.2023;18:15:00;69
10.01.2023;18:30:00;69
10.01.2023;18:45:00;70
10.01.2023;19:00:00;72
10.01.2023;19:15:00;71
10.01.2023;19:30:00;70
10.01.2023;19:45:00;71
10.01.2023;20:00:00;73
10.01.2023;20:15:00;74
10.01.2023;20:30:00;72
10.01.2023;20:45:00;71
10.01.2023;21:00:00;71
10.01.2023;21:15:00;76
10.01.2023;21:30:00;84
10.01.2023;21:45:00;86
10.01.2023;22:00:00;88
10.01.2023;22:15:00;89
10.01.2023;22:30:00;94
10.01.2023;22:45:00;95
10.01.2023;23:00:00;95
10.01.2023;23:15:00;96
10.01.2023;23:30:00;98
10.01.2023;23:45:00;96
11.01.2023;00:00:00;96
11.01.2023;00:15:00;96
11.01.2023;00:30:00;98
11.01.2023;00:45:00;97
11.01.2023;01:00:00;97
11.01.2023;01:15:00;97
11.01.2023;01:30:00;98
11.01.2023;01:45:00;97
11.01.2023;02:00:00;97
11.01.2023;02:15:00;97
11.01.2023;02:30:00;98
11.01.2023;02:45:00;98
11.01.2023;03:00:00;97
11.01.2023;03:15:00;97
11.01.2023;03:30:00;97
11.01.2023;03:45:00;98
11.01.2023;04:00:00;97
11.01.2023;04:15:00;97
11.01.2023;04:30:00;97
11.01.2023;04:45:00;98
11.01.2023;05:00:00;96
11.01.2023;05:15:00;93
11.01.2023;05:30:00;83
11.01.2023;05:45:00;83
11.01.2023;06:00:00;81
11.01.2023;06:15:00;84
11.01.2023;06:30:00;82